Location: Vaughan
(31.9146°N, 97.1736°W)
Time: 06:48:19
(UTC+00:00)

Cosmos 1933 - Pass Details

Date: 10 December 2025
Orbit: 510 x 518 km, 82.5° (Epoch: 13 January)

Event Time Altitude Azimuth Distance (km) Brightness Sun altitude
Exits shadow 11:20:33 62° 120° (ESE) 575 3.5 -24.3°
Drops below altitude 10° 11:23:56 10° 167° (SSE) 1,719 6.1 -23.6°
Sets 11:26:04 0° 169° (S) 2,600 7.1 -23.2°
